Weather History for KJBR - October, 2010

Change the Weather History Date:

Friday, October 15, 2010

  Actual Average Record
Temperature  
Mean Temperature 64 °F 62 °F  
Max Temperature 78 °F 73 °F 89 °F (1963)
Min Temperature 49 °F 50 °F 35 °F (1939)
Degree Days  
Heating Degree Days 1 5  
Month to date heating degree days 33 55  
Since 1 July heating degree days 35 73  
Cooling Degree Days 0 1  
Month to date cooling degree days 43 37  
Year to date cooling degree days 2428 1808  
Growing Degree Days 14 (Base 50)    
Moisture  
Dew Point 38 °F    
Average Humidity 43    
Maximum Humidity 66    
Minimum Humidity 19    
Precipitation  
Precipitation 0.00 in 0.13 in 2.25 in (1989)
Month to date precipitation 0.15 2.00  
Year to date precipitation 25.11 36.17  
Snow  
Snow 0.00 in 0.00 in 0.00 in (2002)
Month to date snowfall 0.0 0.0  
Since 1 July snowfall 0.0 0.0  
Since 1 September snowfall 0.0 0.0  
Snow Depth -    
Sea Level Pressure  
Sea Level Pressure 30.07 in    
Wind  
Wind Speed 5 mph (NNW)    
Max Wind Speed 14 mph    
Max Gust Speed 26 mph    
Visibility 10 miles    
Events      
T = Trace of Precipitation, MM = Missing Value Source: NWS Daily Summary

Daily Weather History Graph

Daily Weather History Graph

Search for Another Location

Airport or City:

Trip Planner

Search our weather history database for the weather conditions in past years. The results will help you decide how hot, cold, wet, or windy it might be!

Date:

Astronomy

Oct. 15, 2010 Rise Set
Actual Time 7:09 AM CDT 6:26 PM CDT
Civil Twilight 6:43 AM CDT 6:52 PM CDT
Nautical Twilight 6:13 AM CDT 7:22 PM CDT
Astronomical Twilight 5:44 AM CDT 7:51 PM CDT
Moon 2:36 PM CDT (10/15) 12:17 AM CDT (10/15)
Length of Visible Light 12h 09m
Length of Day
11h 17m
First Quarter, 58% of the Moon is Illuminated
Oct 15
First Quarter
Oct 22
Full
Oct 30
Last Quarter
Nov 5
New
Nov 13
First Quarter

Hourly Weather History & Observations

Time (CDT) Temp. Dew Point Humidity Pressure Visibility Wind Dir Wind Speed Gust Speed Precip Events Conditions
12:53 AM 57.9 °F 39.0 °F 49% 30.04 in 10.0 mi West 6.9 mph - N/A   Clear
1:53 AM 57.9 °F 39.9 °F 51% 30.03 in 10.0 mi West 6.9 mph - N/A   Clear
2:53 AM 55.0 °F 39.9 °F 57% 30.02 in 10.0 mi WSW 4.6 mph - N/A   Clear
3:53 AM 57.0 °F 39.9 °F 53% 30.01 in 10.0 mi WSW 6.9 mph - N/A   Clear
4:53 AM 55.9 °F 39.9 °F 55% 30.02 in 10.0 mi West 5.8 mph - N/A   Clear
5:53 AM 55.0 °F 39.9 °F 57% 30.04 in 10.0 mi West 6.9 mph - N/A   Clear
6:53 AM 53.1 °F 39.9 °F 61% 30.05 in 10.0 mi West 6.9 mph - N/A   Clear
7:53 AM 55.0 °F 41.0 °F 59% 30.07 in 10.0 mi West 6.9 mph - N/A   Clear
8:53 AM 59.0 °F 42.1 °F 53% 30.09 in 10.0 mi NW 9.2 mph - N/A   Clear
9:53 AM 64.9 °F 42.1 °F 43% 30.10 in 10.0 mi North 5.8 mph - N/A   Clear
10:53 AM 70.0 °F 39.9 °F 33% 30.10 in 10.0 mi NNE 5.8 mph - N/A   Clear
11:53 AM 73.0 °F 37.9 °F 28% 30.10 in 10.0 mi North 6.9 mph - N/A   Clear
12:53 PM 75.0 °F 35.1 °F 23% 30.09 in 10.0 mi Variable 4.6 mph - N/A   Unknown
1:53 PM 77.0 °F 37.0 °F 24% 30.07 in 10.0 mi Variable 6.9 mph - N/A   Clear
2:53 PM 77.0 °F 34.0 °F 21% 30.06 in 10.0 mi North 8.1 mph 17.3 mph N/A   Clear
3:53 PM 77.0 °F 33.1 °F 20% 30.05 in 10.0 mi NNW 4.6 mph - N/A   Clear
4:53 PM 75.9 °F 30.9 °F 19% 30.05 in 10.0 mi North 5.8 mph - N/A   Clear
5:53 PM 73.0 °F 32.0 °F 22% 30.06 in 10.0 mi NE 4.6 mph - N/A   Clear
6:53 PM 60.1 °F 37.9 °F 44% 30.08 in 10.0 mi NE 3.5 mph - N/A   Clear
7:53 PM 57.0 °F 37.0 °F 47% 30.09 in 10.0 mi NE 4.6 mph - N/A   Clear
8:53 PM 54.0 °F 39.0 °F 57% 30.11 in 10.0 mi NNE 3.5 mph - N/A   Clear
9:53 PM 54.0 °F 37.9 °F 55% 30.12 in 10.0 mi Calm Calm - N/A   Clear
10:53 PM 50.0 °F 39.9 °F 68% 30.13 in 10.0 mi Calm Calm - N/A   Clear
11:53 PM 48.9 °F 37.9 °F 66% 30.12 in 10.0 mi NE 5.8 mph - N/A   Clear